GW6010 Weather Reports


time (UTC)temp
C
wind
direction
speed
KPH
gust
KPH
rain 1hr
cm
rain 24hr
cm
rain mn
cm
humidity
%
barometer
mb
20260508110013 -2 224 0.0 0.0 0.00 0.00 0.00 95 1017.3
20260508104518 -2 224 0.0 0.0 0.00 0.00 0.00 95 1017.2
20260508103027 -2 224 0.0 0.0 0.00 0.00 0.00 95 1017.2
20260508101527 -2 224 0.0 0.0 0.00 0.00 0.00 95 1017.0
20260508100009 -2 224 0.0 0.0 0.00 0.00 0.00 95 1016.7
20260508094536 -2 224 0.0 0.0 0.00 0.00 0.00 95 1016.6
20260508093025 -2 224 0.0 0.0 0.00 0.00 0.00 94 1016.5
20260508091540 -1 224 0.0 0.0 0.00 0.00 0.00 94 1016.4
20260508090005 -1 224 0.0 0.0 0.00 0.00 0.00 94 1016.4
20260508084512 -1 224 0.0 0.0 0.00 0.00 0.00 94 1016.4
20260508083016 -1 224 0.0 0.0 0.00 0.00 0.00 94 1016.3
20260508081531 -1 224 0.0 0.0 0.00 0.00 0.00 94 1016.2
20260508080005 -1 224 0.0 0.0 0.00 0.00 0.00 95 1016.0
20260508074506 -1 224 0.0 0.0 0.00 0.00 0.00 94 1016.0
20260508073014 -1 224 0.0 0.0 0.00 0.00 0.00 93 1015.9
20260508071521 -1 224 0.0 0.0 0.00 0.00 0.00 94 1015.9
20260508070023 -1 224 0.0 0.0 0.00 0.00 0.00 93 1015.9
20260508064532 0 224 0.0 0.0 0.00 0.00 0.00 93 1015.9
20260508063007 0 224 0.0 0.0 0.00 0.00 0.00 93 1016.0
20260508061516 0 224 0.0 0.0 0.00 0.00 0.00 92 1016.0
20260508060023 0 224 0.0 0.0 0.00 0.00 0.00 93 1015.9
20260508054529 0 224 0.0 0.0 0.00 0.00 0.00 92 1015.8
20260508053028 0 224 0.0 0.0 0.00 0.00 0.00 92 1015.8
20260508051509 0 224 0.0 0.0 0.00 0.00 0.00 92 1015.7
20260508050013 1 216 0.0 0.0 0.00 0.00 0.00 91 1015.7
20260508044518 1 216 0.0 0.0 0.00 0.00 0.00 92 1015.8
20260508043024 1 201 0.0 1.6 0.00 0.00 0.00 91 1015.6
20260508041528 1 262 0.0 0.0 0.00 0.03 0.00 89 1015.5
20260508040019 2 263 0.0 0.0 0.00 0.03 0.00 90 1015.5
20260508034519 2 262 0.0 0.0 0.00 0.03 0.03 88 1015.3
20260508033021 2 262 0.0 0.0 0.00 0.03 0.03 88 1015.3
20260508031522 3 262 0.0 0.0 0.00 0.03 0.03 86 1015.0
20260508030027 3 262 0.0 1.6 0.00 0.03 0.03 86 1014.8
20260508024518 3 262 0.0 0.0 0.00 0.03 0.03 85 1014.9
20260508023020 4 261 0.0 0.0 0.00 0.03 0.03 82 1014.6
20260508021522 5 261 0.0 1.6 0.00 0.05 0.03 80 1014.3
20260508020024 6 241 0.0 1.6 0.00 0.05 0.03 78 1014.2
20260508014526 6 271 0.0 4.8 0.00 0.05 0.03 75 1014.0
20260508013012 7 304 0.0 4.8 0.00 0.05 0.03 74 1013.8
20260508011519 7 225 1.6 3.2 0.00 0.05 0.03 71 1013.6
20260508010023 8 298 3.2 9.7 0.00 0.05 0.03 63 1013.5
20260508004525 10 266 0.0 8.0 0.00 0.05 0.03 59 1013.5
20260508003027 10 318 3.2 11.3 0.00 0.05 0.03 54 1013.3
20260508001532 11 262 6.4 9.7 0.00 0.08 0.03 54 1013.1
20260508000005 11 288 6.4 11.3 0.00 0.10 0.03 52 1012.8
20260507234506 12 296 6.4 12.9 0.00 0.13 0.03 50 1012.9
20260507233020 12 294 8.0 14.5 0.00 0.15 0.03 51 1012.7
20260507231507 12 307 8.0 17.7 0.00 0.18 0.03 50 1012.7
20260507230015 12 310 9.7 14.5 0.00 0.28 0.03 50 1012.4
20260507224506 12 291 6.4 22.5 0.00 0.28 0.03 52 1012.5
20260507223006 12 254 8.0 17.7 0.00 0.28 0.03 52 1012.3
20260507221518 13 297 6.4 11.3 0.00 0.28 0.03 53 1011.9
20260507220004 13 291 3.2 12.9 0.00 0.28 0.03 53 1012.1
20260507214503 13 243 8.0 24.1 0.00 0.30 0.03 54 1011.8
20260507213006 13 240 8.0 19.3 0.00 0.30 0.03 55 1011.5
20260507211520 12 264 6.4 29.0 0.00 0.30 0.03 58 1011.6
20260507210014 12 304 6.4 12.9 0.00 0.30 0.03 56 1011.3
20260507204504 13 285 4.8 17.7 0.00 0.30 0.03 55 1011.3
20260507203004 15 287 9.7 22.5 0.00 0.30 0.03 51 1011.1
20260507201506 14 294 8.0 27.4 0.00 0.30 0.03 50 1011.3
20260507200009 13 82 4.8 17.7 0.00 0.30 0.03 49 1011.4
20260507194515 13 287 6.4 30.6 0.00 0.30 0.03 52 1011.8
20260507193005 13 272 6.4 20.9 0.00 0.30 0.03 53 1011.9
20260507191504 13 210 11.3 17.7 0.00 0.30 0.03 58 1012.0
20260507190007 12 50 6.4 17.7 0.00 0.30 0.03 58 1012.0
20260507184510 12 24 6.4 14.5 0.00 0.36 0.03 58 1012.4
20260507183014 12 328 9.7 22.5 0.00 0.36 0.03 60 1012.5
20260507181504 12 289 8.0 19.3 0.00 0.36 0.03 61 1012.2
20260507180007 12 300 11.3 22.5 0.00 0.36 0.03 62 1012.2
20260507174515 11 59 4.8 16.1 0.00 0.36 0.03 62 1012.4
20260507173021 12 40 3.2 22.5 0.00 0.36 0.03 61 1012.7
20260507171516 12 283 9.7 16.1 0.00 0.36 0.03 61 1012.5
20260507170016 11 281 9.7 22.5 0.00 0.36 0.03 61 1012.8
20260507164506 11 319 1.6 17.7 0.00 0.36 0.03 60 1012.9
20260507163009 11 268 1.6 12.9 0.00 0.36 0.03 58 1012.9
20260507161515 11 316 1.6 19.3 0.00 0.36 0.03 58 1012.9
20260507160020 11 271 1.6 12.9 0.00 0.36 0.03 61 1012.9
20260507154507 11 278 3.2 14.5 0.00 0.36 0.03 62 1013.0
20260507153008 11 299 6.4 12.9 0.00 0.36 0.03 60 1013.2
20260507151517 11 285 8.0 14.5 0.00 0.36 0.03 61 1013.2
20260507150018 10 251 3.2 16.1 0.00 0.36 0.03 64 1013.3
20260507144520 10 273 6.4 14.5 0.00 0.36 0.03 64 1013.2
20260507143006 9 253 1.6 12.9 0.00 0.36 0.03 69 1013.4
20260507141509 9 293 1.6 12.9 0.00 0.36 0.03 73 1013.5
20260507140015 8 281 1.6 11.3 0.00 0.36 0.03 77 1013.7
20260507134520 8 234 1.6 16.1 0.00 0.36 0.03 79 1013.8
20260507133024 8 113 4.8 6.4 0.00 0.36 0.03 82 1014.0
20260507131509 8 268 3.2 8.0 0.00 0.38 0.03 83 1014.0
20260507130011 7 295 0.0 9.7 0.00 0.38 0.03 84 1014.0
20260507124516 7 261 3.2 9.7 0.00 0.38 0.03 85 1014.1
20260507123023 7 317 3.2 11.3 0.00 0.38 0.03 87 1014.0
20260507121524 7 290 3.2 12.9 0.00 0.48 0.03 87 1013.9
20260507120008 7 268 4.8 9.7 0.00 0.56 0.03 87 1013.9
20260507114513 7 51 4.8 9.7 0.00 0.58 0.03 87 1013.8
20260507113017 7 266 1.6 6.4 0.00 0.64 0.03 87 1013.6
20260507111523 7 308 3.2 9.7 0.00 0.64 0.03 88 1013.5